CAPE
868 723 888 933 908 724 565 373 218 112 210 395 480 305 256 182 248 602 543 584 361 320 280 191 187 163 87 96 216 225 173 27 164 102 87 87 102 73 6 47 73 64 28
1039 858 815 1043 1043 929 678 403 299 206 159 271 337 334 80 72 41 277 533 423 314 261 160 219 190 156 75 110 164 197 141 86 142 74 72 43 37 98 94 61 93 55 30
1121 974 800 812 896 852 667 502 525 398 273 259 176 287 221 102 29 99 405 511 459 409 328 261 169 246 139 87 98 119 78 38 83 53 32 27 9 31 70 26 59 70 11
1175 1037 948 888 856 977 901 880 826 544 504 460 366 366 427 469 314 260 368 490 553 462 436 330 380 331 361 103 136 194 69 48 26 65 30 49 23 13 14 50 28 37 11
1169 1143 1100 1020 981 996 1211 1087 1033 1001 926 743 599 512 497 524 613 580 602 636 588 536 538 518 474 463 489 109 197 245 83 41 41 63 56 32 37 20 65 22 43 33 29
1251 1355 1264 1170 1151 1165 1248 1307 1207 1161 1294 1303 1076 911 760 710 753 718 683 649 608 704 823 600 507 549 476 169 35 35 58 33 32 80 60 25 39 81 81 67 62 86 52
1436 1393 1377 1373 1378 1270 1360 1556 1389 1295 1283 1403 1452 1250 1151 973 930 851 710 847 832 712 715 640 518 450 325 197 59 85 44 47 28 23 87 75 28 31 4 23 45 60 82
1524 1456 1410 1487 1494 1483 1502 1639 1687 1546 1483 1567 1506 1473 1537 1422 1335 1158 966 905 932 841 661 673 682 503 264 47 36 1 0 0 1 0 15 121 121 102 70 29 71 59 61
1617 1385 1414 1473 1563 1604 1604 1780 1865 1825 1830 1725 1763 1668 1460 1600 1604 1561 1286 1045 886 836 735 620 479 287 299 257 88 0 0 0 10 58 50 103 82 169 216 144 44 81 36
1587 1311 1443 1449 1635 1643 1658 1666 1878 1954 2028 2112 2075 2052 2097 1926 1842 1733 1615 1445 1155 883 703 514 524 376 194 159 89 20 7 3 12 25 51 174 199 231 266 100 114 53 65
1136 1146 1260 1343 1460 1655 1652 1714 1911 2046 2200 2286 2312 2394 2418 2464 2402 2288 2003 1768 1490 1198 925 758 605 507 317 185 126 96 47 34 6 72 294 280 286 150 127 188 141 44 58
297 864 957 981 1326 1541 1706 1818 2016 2171 2342 2461 2574 2607 2626 2654 2558 2459 2252 1932 1763 1457 1199 1046 873 720 564 441 312 184 200 119 149 267 328 283 144 86 130 180 147 59 30
1 582 737 909 1119 1439 1717 1936 2163 2333 2492 2563 2656 2584 2729 2592 2273 2086 2022 1902 1847 1632 1458 1343 1182 916 803 634 433 579 563 490 510 661 474 230 217 156 116 156 109 63 77
56 371 641 903 1091 1463 1629 1891 2057 2207 2249 2306 2315 2211 2213 2278 2147 1961 1776 1742 1733 1645 1531 1388 1168 1061 851 824 831 857 842 767 844 735 371 219 77 20 41 120 140 105 50
57 435 711 955 1227 1419 1574 1687 1736 1855 1926 1993 1921 1988 2060 2139 1878 1738 1663 1695 1736 1666 1518 1347 1276 1110 1143 1093 997 1005 944 956 707 380 188 164 111 152 107 63 45 37 69
209 695 911 1170 1410 1478 1530 1611 1624 1713 1814 1845 1903 2088 2080 1949 1890 1701 1615 1658 1513 1394 1310 1361 1221 1277 1398 1399 1297 1183 1244 1054 597 363 0 11 0 76 58 7 3 26 47
273 688 881 1156 1420 1581 1635 1695 1753 1881 1962 1949 2009 2051 1974 2010 1812 1680 1538 1462 1345 1318 1295 1298 1306 1441 1432 1401 1415 1480 1394 822 612 224 0 0 0 0 14 0 0 0 0
1088 968 1099 1441 1661 1788 1931 1937 1998 1961 2069 1994 2016 1966 1900 1896 1826 1688 1594 1594 1418 1339 1413 1460 1550 1518 1552 1619 1548 1095 929 972 669 253 71 6 0 0 0 0 0 1 2
713 1064 1779 1739 2090 1996 2087 2190 2266 2243 2401 2303 2168 2161 2068 2083 1992 1875 1834 1746 1654 1575 1755 1635 1736 1732 1575 1593 1298 1072 929 906 743 414 183 76 37 0 0 0 0 0 0
1022 1384 1772 2192 2262 2334 2443 2581 2696 2715 2672 2545 2343 2290 2171 2103 2123 2127 2053 1910 1934 1905 1689 1867 1858 1566 1211 1093 812 705 831 941 799 639 480 208 99 38 0 0 0 0 0
1762 2107 2068 2052 2569 2727 2804 2791 2944 2961 2884 2695 2492 2390 2331 2079 2011 1941 2020 2181 2169 2079 1929 1657 1244 1101 775 519 481 277 444 689 649 682 796 722 358 74 18 0 0 0 0
2295 2408 2487 2850 3160 3339 3269 3200 3318 3214 3044 2735 2645 2568 2510 2344 2248 2195 2061 2091 1993 1826 1351 944 904 872 674 498 357 48 44 95 410 440 657 930 673 393 65 17 9 0 15
2020 1971 2167 2289 2548 2974 3231 3261 2873 3089 3438 3222 3028 2853 2680 2575 2455 2304 2118 1808 1377 1310 919 627 620 687 603 522 259 13 171 46 56 54 120 73 74 154 104 80 56 20 0
1727 1330 1256 1476 1606 1730 1891 1950 1888 2294 2797 2974 2891 2679 2520 2184 1874 1742 1568 1407 1164 909 680 366 407 369 365 225 215 7 1 49 51 11 12 0 0 3 51 44 18 10 0
1784 1552 1164 1155 1125 1075 986 907 1154 1528 1725 1840 1925 1694 1494 1393 1105 898 834 712 356 325 386 159 24 0 113 9 9 31 72 76 84 31 4 0 0 1 0 6 0 0 0
1780 1706 1483 1314 1251 1034 830 753 673 790 888 834 828 933 762 452 387 357 294 121 63 20 0 0 0 0 0 0 0 9 15 21 18 4 0 0 0 0 0 0 0 0 0
CIN
-151 -136 -108 -102 -110 -178 -201 -233 -200 -201 -160 -119 -80 -82 -68 -72 -68 -63 -65 -53 -71 -66 -70 -66 -66 -78 -77 -89 -49 -51 -46 -88 -59 -19 -28 -23 -14 -14 -39 -29 -23 -33 -56
-170 -144 -140 -102 -127 -146 -191 -240 -233 -225 -216 -167 -133 -91 -95 -87 -103 -63 -43 -54 -61 -73 -77 -77 -83 -84 -92 -100 -78 -62 -60 -55 -33 -40 -45 -33 -25 -8 -11 -18 -27 -38 -38
-174 -158 -154 -150 -150 -157 -205 -263 -237 -231 -236 -211 -197 -142 -122 -117 -135 -113 -66 -62 -64 -75 -71 -65 -83 -84 -88 -82 -81 -76 -78 -81 -54 -59 -61 -56 -64 -35 -24 -42 -47 -47 -68
-170 -149 -151 -147 -142 -173 -186 -197 -231 -245 -214 -213 -191 -154 -132 -102 -112 -98 -93 -92 -91 -87 -76 -77 -74 -67 -68 -70 -71 -57 -73 -84 -69 -41 -66 -49 -75 -54 -54 -43 -65 -60 -82
-159 -147 -155 -156 -162 -177 -182 -182 -192 -171 -173 -188 -183 -164 -151 -125 -97 -65 -56 -70 -90 -80 -83 -82 -86 -76 -61 -81 -56 -45 -51 -64 -69 -57 -58 -51 -24 -50 -32 -42 -49 -68 -85
-145 -132 -138 -177 -172 -197 -196 -193 -185 -172 -154 -147 -160 -156 -147 -120 -85 -67 -57 -69 -71 -72 -69 -81 -89 -79 -74 -96 -101 -81 -60 -41 -44 -38 -56 -56 -50 -31 -17 -22 -43 -39 -67
-112 -136 -144 -185 -186 -202 -199 -201 -219 -201 -185 -153 -145 -148 -137 -126 -91 -64 -63 -52 -60 -85 -95 -86 -83 -85 -83 -87 -93 -58 -61 -48 -24 -35 -36 -48 -53 -47 -88 -56 -39 -21 -43
-112 -142 -146 -167 -197 -200 -214 -231 -243 -233 -219 -174 -157 -142 -124 -114 -93 -68 -52 -38 -52 -66 -106 -93 -82 -83 -79 -84 -78 -14 -0 -0 -76 -0 -49 -31 -36 -32 -42 -51 -11 -11 -17
-141 -140 -153 -143 -160 -195 -211 -214 -217 -230 -242 -207 -165 -151 -134 -101 -84 -54 -42 -38 -64 -72 -85 -86 -93 -107 -82 -54 -51 -8 -0 -3 -64 -35 -31 -22 -51 -35 -25 -32 -56 -12 -38
-148 -135 -163 -124 -159 -159 -187 -224 -211 -198 -219 -204 -177 -145 -109 -80 -58 -43 -30 -24 -47 -78 -86 -118 -103 -86 -93 -71 -55 -58 -61 -36 -45 -45 -20 -29 -38 -36 -28 -51 -35 -47 -13
-129 -118 -123 -106 -136 -134 -176 -197 -210 -213 -225 -196 -170 -124 -88 -52 -38 -28 -27 -29 -39 -61 -83 -81 -112 -91 -92 -88 -65 -48 -52 -51 -44 -18 -8 -31 -39 -35 -55 -65 -40 -39 -29
-118 -102 -88 -119 -130 -135 -151 -189 -202 -191 -193 -174 -148 -110 -65 -30 -29 -26 -21 -32 -27 -48 -60 -51 -53 -50 -53 -48 -43 -61 -39 -55 -41 -21 -20 -37 -51 -61 -49 -37 -43 -40 -42
-25 -85 -105 -102 -124 -119 -153 -184 -198 -180 -178 -173 -141 -128 -73 -49 -59 -66 -64 -67 -63 -60 -54 -32 -23 -33 -36 -47 -67 -32 -29 -21 -16 -8 -23 -47 -30 -32 -34 -35 -35 -36 -33
-132 -152 -126 -131 -116 -131 -153 -198 -201 -202 -206 -206 -179 -165 -146 -118 -97 -101 -107 -97 -96 -88 -73 -49 -47 -40 -55 -37 -20 -12 -10 -18 -15 -15 -38 -52 -49 -19 -43 -28 -39 -40 -45
-41 -169 -111 -127 -126 -137 -194 -218 -222 -238 -245 -236 -225 -206 -188 -137 -138 -140 -125 -110 -103 -101 -102 -83 -52 -53 -46 -45 -37 -12 -6 -4 -15 -43 -68 -53 -37 -29 -41 -51 -69 -65 -49
-111 -122 -124 -146 -120 -151 -181 -209 -231 -247 -267 -257 -241 -206 -183 -164 -145 -153 -161 -137 -123 -119 -121 -103 -113 -75 -30 -28 -28 -19 -10 -7 -24 -41 -0 -124 -0 -26 -43 -103 -106 -72 -56
-38 -92 -118 -146 -156 -149 -178 -195 -214 -256 -240 -237 -233 -204 -183 -156 -172 -174 -189 -162 -145 -124 -101 -71 -48 -26 -38 -40 -18 -13 -15 -48 -60 -117 -0 -0 -0 -0 -88 -14 -0 -0 -0
-97 -79 -127 -164 -185 -190 -185 -203 -212 -216 -211 -210 -215 -204 -180 -167 -173 -176 -162 -129 -138 -130 -88 -52 -29 -20 -15 -14 -17 -32 -48 -39 -71 -135 -190 -62 -0 -0 -3 -2 -0 -43 -58
-68 -106 -125 -168 -183 -156 -161 -163 -179 -184 -169 -169 -167 -158 -160 -142 -150 -149 -135 -123 -120 -125 -81 -88 -50 -24 -23 -20 -25 -34 -54 -59 -67 -90 -133 -179 -206 -0 -0 -0 -0 -0 -0
-176 -128 -133 -156 -158 -169 -151 -119 -109 -124 -118 -115 -123 -120 -111 -126 -128 -102 -105 -114 -83 -64 -104 -68 -80 -167 -168 -95 -63 -50 -52 -30 -42 -59 -78 -107 -128 -210 -0 -0 -0 -0 -0
-203 -200 -174 -173 -181 -161 -123 -95 -79 -62 -66 -74 -75 -89 -85 -107 -107 -88 -76 -48 -24 -21 -18 -39 -118 -154 -178 -198 -148 -151 -64 -36 -34 -54 -49 -60 -83 -129 -196 -0 -0 -0 -0
-202 -230 -220 -209 -205 -140 -113 -91 -74 -88 -70 -76 -72 -74 -62 -66 -67 -36 -31 -20 -16 -14 -41 -97 -111 -153 -147 -127 -172 -215 -77 -101 -26 -38 -31 -23 -45 -72 -126 -171 -107 -0 -95
-225 -268 -242 -254 -245 -183 -117 -83 -123 -100 -55 -49 -49 -36 -32 -25 -22 -15 -16 -20 -39 -26 -60 -98 -119 -107 -91 -106 -154 -172 -89 -96 -148 -152 -90 -115 -154 -95 -108 -114 -94 -108 -0
-282 -311 -323 -301 -298 -287 -252 -214 -213 -147 -83 -56 -44 -40 -27 -38 -49 -35 -35 -49 -55 -67 -92 -106 -95 -90 -70 -75 -109 -176 -34 -166 -141 -205 -231 -0 -0 -163 -147 -156 -172 -159 -0
-250 -279 -338 -345 -344 -343 -356 -377 -301 -208 -145 -105 -73 -80 -84 -77 -109 -125 -113 -119 -234 -213 -127 -128 -72 -0 -41 -22 -43 -166 -89 -100 -106 -155 -186 -0 -0 -78 -212 -200 -0 -0 -0
-268 -306 -340 -356 -352 -354 -387 -365 -365 -317 -249 -208 -187 -137 -143 -211 -222 -228 -248 -364 -260 -115 -0 -0 -0 -0 -0 -0 -0 -220 -212 -192 -188 -138 -38 -0 -0 -0 -0 -0 -0 -0 -0
Wind_Speed
19 19 18 20 19 20 21 23 26 26 21 17 16 18 22 12 4 7 13 16 15 11 11 5 4 4 4 4 5 8 6 11 9 11 10 15 14 16 10 17 16 20 23
19 18 17 21 21 22 23 25 23 23 23 18 14 8 15 21 6 5 10 14 14 13 10 8 6 5 4 5 5 6 6 7 8 9 11 16 15 13 10 12 16 20 23
20 19 21 23 23 23 23 24 22 21 20 18 9 1 2 12 8 2 7 12 15 13 12 11 7 4 3 4 3 5 3 4 5 6 9 11 9 14 4 14 16 18 19
20 19 23 26 25 22 23 22 21 21 19 15 13 13 10 15 19 10 6 9 12 12 11 7 7 4 2 2 3 3 3 6 4 3 8 8 12 9 12 14 17 16 20
21 21 24 26 26 23 22 22 22 21 20 19 16 16 13 10 4 4 5 8 9 9 8 6 4 4 2 4 2 2 1 3 10 6 9 4 3 17 16 16 9 10 21
24 23 25 24 24 23 22 22 23 23 21 20 19 17 17 13 9 3 3 6 6 8 7 9 6 3 4 3 5 2 10 8 10 8 4 5 7 3 17 25 20 4 10
25 27 24 22 23 23 22 21 21 22 21 19 18 17 17 16 16 14 8 6 7 5 8 6 7 7 5 6 4 5 2 19 23 10 7 7 7 7 10 23 26 21 4
28 30 26 23 23 24 21 20 21 19 19 17 17 15 13 13 12 11 11 10 9 10 7 8 5 6 5 6 4 5 10 3 24 19 19 16 17 2 7 18 22 25 13
28 28 24 23 24 22 21 20 19 18 16 16 12 11 12 9 11 11 14 12 10 10 9 7 5 4 5 5 6 6 11 6 12 6 20 35 22 3 9 14 22 30 7
31 27 22 19 22 23 20 19 18 17 14 13 12 10 9 11 12 11 12 14 12 7 7 4 9 14 11 11 9 9 13 10 13 14 26 25 10 8 5 4 4 11 7
34 27 26 23 21 20 17 18 16 15 13 12 10 8 9 13 14 15 15 14 12 10 7 9 10 11 11 9 8 9 7 5 4 5 13 15 17 17 5 7 6 9 13
30 22 23 22 18 19 15 16 16 14 14 14 13 13 12 14 14 14 14 14 14 11 12 10 9 9 10 9 10 10 8 8 8 9 8 11 21 7 9 10 10 10 12
15 23 22 20 18 17 14 15 15 15 15 15 15 15 15 14 14 14 12 13 14 13 12 9 8 8 9 10 12 12 12 12 11 10 7 24 27 24 13 10 10 10 11
25 28 20 18 15 14 14 14 15 15 16 16 16 16 15 15 14 13 12 11 13 13 12 10 10 9 8 9 10 12 13 12 9 7 5 26 31 15 9 9 6 5 7
37 33 18 15 12 13 12 12 13 14 13 14 15 15 15 15 14 13 11 12 11 11 11 11 12 12 9 7 7 8 10 7 5 8 14 18 26 25 4 1 2 3 6
12 18 13 12 13 13 13 12 12 11 11 12 13 12 12 12 12 12 11 10 10 9 8 7 9 8 6 7 9 7 5 3 5 9 14 17 21 17 10 7 1 2 3
35 12 17 10 11 10 8 10 10 7 7 8 8 8 8 8 9 8 9 9 8 6 5 5 4 4 6 7 5 5 4 4 3 6 9 13 16 17 13 8 3 2 8
17 14 10 9 9 4 4 3 5 4 2 2 3 3 4 5 5 5 4 4 4 4 3 3 3 5 8 1 7 1 3 2 2 3 6 10 11 11 12 12 9 8 8
13 18 17 11 6 8 4 3 2 2 2 1 1 1 1 1 1 1 1 1 1 1 1 2 5 10 12 12 12 18 18 8 6 8 8 6 8 7 8 8 7 7 5
6 8 11 7 8 7 4 2 2 2 2 2 2 3 3 2 2 2 2 2 2 3 4 4 1 10 18 24 27 22 20 15 16 13 8 3 3 2 3 4 5 5 5
10 6 7 7 11 8 5 4 4 3 1 1 2 3 3 3 4 4 5 5 4 4 4 7 5 6 5 14 23 27 27 24 25 25 17 7 6 2 2 1 4 3 9
6 5 1 1 3 4 3 5 8 15 13 11 8 8 7 7 7 6 7 8 7 7 6 8 8 7 8 4 8 18 30 33 30 26 24 23 7 6 5 3 4 10 14
6 4 2 1 2 3 3 6 14 17 13 12 12 11 11 11 10 8 8 9 9 8 9 9 9 9 8 7 8 10 10 23 31 30 27 28 31 8 6 6 5 6 12
9 7 4 1 2 5 7 10 13 15 14 13 12 11 10 11 12 11 11 11 11 11 11 11 11 10 11 9 7 10 12 14 31 33 34 32 31 27 23 16 11 10 9
9 5 3 1 4 7 9 11 13 14 14 14 14 14 14 14 14 15 14 13 15 13 11 11 13 14 13 10 8 10 13 11 30 31 31 26 28 28 25 23 17 15 16
8 5 3 1 4 7 10 13 14 13 14 15 15 15 14 14 13 13 15 15 16 15 15 16 17 14 15 11 11 16 17 21 19 20 25 29 27 27 28 25 20 15 14
Wind_Direction
169 163 163 163 157 157 158 159 160 164 157 150 150 157 167 149 344 109 148 155 148 139 136 112 82 66 14 53 20 354 68 116 73 65 124 176 159 168 156 173 168 176 181
165 161 157 162 164 163 164 165 165 165 167 160 154 145 158 174 145 114 138 156 156 156 155 146 130 111 61 92 83 83 53 101 100 51 35 292 302 162 158 162 172 179 181
167 160 162 160 158 161 161 163 164 164 164 164 149 291 136 285 167 282 151 156 162 161 156 156 144 114 100 102 99 117 60 55 95 82 40 19 27 319 122 163 169 170 173
169 163 163 166 166 162 162 163 161 162 162 158 157 161 163 164 172 158 143 152 157 159 157 154 147 137 111 108 135 137 131 348 28 62 150 23 353 22 332 307 174 169 176
164 162 162 164 165 160 158 159 160 161 162 163 162 166 167 168 158 154 163 168 167 168 165 166 162 150 144 142 128 15 138 315 315 321 338 145 95 302 308 306 334 159 184
166 162 160 156 158 158 156 157 161 167 163 164 167 169 172 171 174 192 192 174 185 179 180 173 178 205 187 184 175 218 313 316 309 297 314 339 357 126 300 263 248 213 193
163 165 157 157 161 161 160 160 163 168 167 166 169 171 174 176 183 185 187 192 188 218 188 189 185 186 203 202 260 287 278 300 290 297 289 302 315 334 326 265 243 200 257
164 169 162 158 161 167 163 162 167 168 168 170 173 171 166 173 179 183 185 194 196 198 206 203 214 200 213 211 264 280 301 293 293 293 287 290 295 216 313 298 282 276 299
167 169 168 166 166 165 165 165 164 167 168 172 170 171 175 173 179 181 184 186 195 197 201 208 241 264 216 213 204 217 206 229 201 207 207 254 282 254 305 302 280 221 293
183 173 169 166 171 174 170 164 165 167 164 162 164 166 168 175 180 176 184 189 189 189 191 203 175 184 181 185 188 199 203 200 197 194 209 205 208 202 225 252 231 200 233
192 179 176 170 169 169 163 161 160 157 154 156 152 145 155 168 174 176 177 179 178 171 168 169 169 172 173 165 166 172 173 171 171 178 188 197 203 207 258 279 259 264 273
187 180 174 169 163 165 156 155 154 151 148 146 147 151 149 155 160 162 165 167 169 159 162 159 157 157 161 152 158 159 151 160 172 187 313 301 296 243 276 281 270 265 263
194 178 171 167 162 159 150 146 146 142 138 135 137 139 144 144 148 149 146 150 158 158 154 145 142 144 146 152 157 160 159 163 169 177 336 298 296 297 292 276 268 263 265
256 177 168 164 157 152 149 140 136 134 131 129 131 136 136 138 134 126 126 126 143 151 150 144 145 140 137 141 149 158 162 164 158 152 49 307 296 275 283 283 248 212 209
223 198 158 155 158 153 150 145 137 133 127 127 131 135 133 129 123 114 105 116 116 130 136 140 150 155 140 129 131 143 156 144 83 24 360 353 314 299 337 270 247 211 199
211 173 166 152 154 154 154 152 145 136 129 130 133 125 117 118 118 118 110 111 105 101 97 110 133 135 129 141 155 149 131 91 55 16 2 359 353 354 352 333 117 171 171
229 192 166 180 158 164 164 161 159 139 129 134 124 122 111 112 111 104 107 112 110 91 80 53 35 127 150 157 149 151 131 131 107 31 26 21 10 3 8 11 5 324 292
261 251 240 185 170 191 200 197 170 170 150 122 117 102 106 113 105 94 92 91 92 105 90 65 25 350 332 285 187 232 327 219 166 26 24 20 29 37 36 31 32 3 331
266 272 260 191 191 165 186 213 212 234 261 255 282 343 25 68 112 118 107 93 65 57 93 354 332 320 317 315 311 305 302 303 297 317 336 358 13 49 66 56 64 43 23
258 256 267 203 197 178 182 215 276 297 304 315 305 317 319 296 302 310 275 258 233 218 300 176 291 294 301 297 295 298 294 295 297 305 309 301 345 31 74 54 69 82 88
266 257 272 244 173 173 195 247 284 292 322 3 355 340 328 317 304 304 305 290 274 272 253 302 314 310 313 292 291 289 285 285 287 289 297 292 202 205 171 315 339 2 347
223 265 249 190 187 179 198 278 291 298 304 311 316 321 325 329 325 319 318 313 298 284 277 301 315 323 329 319 309 291 286 276 280 287 291 291 225 224 258 275 308 311 309
182 223 207 84 25 345 303 299 303 304 303 307 309 315 320 322 324 322 315 313 305 283 278 283 297 310 326 314 300 301 288 281 273 279 286 284 280 280 254 264 277 304 304
181 154 156 248 328 336 332 323 318 321 325 321 320 323 324 324 323 321 317 310 307 296 286 285 300 307 311 312 301 312 308 298 266 270 277 282 283 289 295 295 294 290 290
184 177 176 300 319 329 336 335 331 332 331 328 327 326 325 325 326 326 326 326 325 321 305 302 310 310 309 304 305 312 315 311 265 280 287 293 285 282 287 290 293 289 290
193 208 232 309 326 332 332 330 333 335 333 331 330 329 330 330 334 336 337 338 335 335 330 324 319 316 318 318 313 306 304 299 300 300 301 292 279 276 277 283 290 288 287